Date String (YYYY-MM-DD hh:mm:ss) UTC,Instrument flags,Ambient pressure (hPa),Sample flow (lpm),Bypass flow (lpm),Sample temperature (°C),Ambient temperature (°C),ASC tube jacket temperature (°C),LED temperature (°C),Box temperature (°C),Sample RH (%),Span deviation,Mass concentration (μg/m³),Mass concentration (μg/m³),Mass concentration (μg/m³)
DateTimeUTC,F1_M11,P_M11,Q1_M11,Q2_M11,T1_M11,T2_M11,T3_M11,T4_M11,T5_M11,U1_M11,ZSPAN_M11,X0_M11,X2_M11,X1_M11
2022-08-19 04:00:00,,0830.1,4.99,0.00,29.3,27.3,00.0,38.1,31.1,21.8,0000.0,0014.42,0005.61,0004.75
2022-08-19 04:01:00,,0830.1,4.99,0.00,29.3,27.5,00.0,38.1,31.1,22.1,0000.0,0013.88,0005.58,0004.74
2022-08-19 04:02:00,,0830.1,4.99,0.00,29.3,27.7,00.0,38.1,31.2,21.8,0000.0,0013.37,0005.56,0004.74
2022-08-19 04:03:00,,0830.1,5.00,0.00,29.3,27.9,00.0,38.1,31.2,21.8,0000.0,0012.14,0005.55,0004.72
2022-08-19 04:04:00,,0830.1,5.00,0.00,29.3,28.0,00.0,38.1,31.3,21.8,0000.0,0012.02,0005.58,0004.74
2022-08-19 04:05:00,,0830.1,4.99,0.00,29.4,28.2,00.0,38.1,31.3,22.0,0000.0,0012.79,0005.64,0004.75
2022-08-19 04:06:00,,0830.1,5.00,0.00,29.4,28.3,00.0,38.1,31.4,22.1,0000.0,0013.31,0005.75,0004.78
2022-08-19 04:07:00,,0830.1,5.01,0.00,29.4,28.4,00.0,38.1,31.4,22.0,0000.0,0013.83,0005.87,0004.83
2022-08-19 04:08:00,,0830.1,5.00,0.00,29.5,28.5,00.0,38.2,31.5,21.7,0000.0,0014.82,0005.94,0004.88
2022-08-19 04:09:00,,0830.1,5.01,0.00,29.5,28.6,00.0,38.2,31.5,21.7,0000.0,0014.87,0005.98,0004.93
2022-08-19 04:10:00,,0830.0,5.01,0.00,29.6,28.6,00.0,38.2,31.5,21.7,0000.0,0015.44,0006.02,0004.98
2022-08-19 04:11:00,,0830.0,4.99,0.00,29.6,28.6,00.0,38.2,31.5,21.7,0000.0,0016.53,0006.12,0005.03
2022-08-19 04:12:00,,0830.1,5.01,0.00,29.6,27.9,00.0,38.2,31.3,22.6,0000.0,0017.33,0006.20,0005.10
2022-08-19 04:13:00,,0830.0,5.00,0.00,29.5,27.5,00.0,38.2,31.3,22.2,0000.0,0018.08,0006.27,0005.16
2022-08-19 04:14:00,,0830.1,4.99,0.00,29.4,27.5,00.0,38.2,31.2,22.1,0000.0,0018.47,0006.31,0005.22
2022-08-19 04:15:00,,0830.1,5.01,0.00,29.4,27.5,00.0,38.1,31.2,22.1,0000.0,0018.69,0006.32,0005.26
2022-08-19 04:16:00,,0830.1,4.99,0.00,29.4,27.6,00.0,38.2,31.2,22.1,0000.0,0017.93,0006.32,0005.30
2022-08-19 04:17:00,,0830.1,4.99,0.00,29.4,27.8,00.0,38.2,31.3,22.1,0000.0,0017.49,0006.33,0005.33
2022-08-19 04:18:00,,0830.1,5.01,0.00,29.4,27.9,00.0,38.2,31.3,22.1,0000.0,0017.80,0006.35,0005.36
2022-08-19 04:19:00,,0830.0,4.99,0.00,29.4,28.1,00.0,38.2,31.4,22.1,0000.0,0017.40,0006.36,0005.38
2022-08-19 04:20:00,,0830.1,5.01,0.00,29.5,28.2,00.0,38.2,31.4,22.3,0000.0,0018.37,0006.36,0005.40
2022-08-19 04:21:00,,0830.1,4.99,0.00,29.5,28.3,00.0,38.2,31.4,22.3,0000.0,0017.92,0006.37,0005.43
2022-08-19 04:22:00,,0830.1,5.00,0.00,29.5,28.4,00.0,38.2,31.5,22.5,0000.0,0017.00,0006.41,0005.48
2022-08-19 04:23:00,,0830.1,5.00,0.00,29.5,28.5,00.0,38.2,31.5,22.4,0000.0,0016.91,0006.41,0005.51
2022-08-19 04:24:00,,0830.1,5.00,0.00,29.6,28.6,00.0,38.3,31.5,22.5,0000.0,0016.68,0006.41,0005.53
2022-08-19 04:25:00,,0830.1,5.00,0.00,29.6,28.7,00.0,38.3,31.6,22.3,0000.0,0017.49,0006.44,0005.56
2022-08-19 04:26:00,,0830.1,5.01,0.00,29.6,28.6,00.0,38.3,31.6,22.4,0000.0,0017.18,0006.48,0005.58
2022-08-19 04:27:00,,0830.1,5.01,0.00,29.6,27.8,00.0,38.2,31.3,22.4,0000.0,0016.86,0006.53,0005.61
2022-08-19 04:28:00,,0830.1,5.00,0.00,29.5,27.1,00.0,38.2,31.2,22.5,0000.0,0016.56,0006.51,0005.63
2022-08-19 04:29:00,,0830.1,4.99,0.00,29.4,26.9,00.0,38.2,31.1,22.6,0000.0,0015.67,0006.47,0005.66
2022-08-19 04:30:00,,0830.1,5.00,0.00,29.3,26.9,00.0,38.1,31.0,22.9,0000.0,0015.46,0006.49,0005.68
2022-08-19 04:31:00,,0830.1,5.01,0.00,29.3,27.1,00.0,38.1,31.0,22.7,0000.0,0015.11,0006.53,0005.71
2022-08-19 04:32:00,,0830.1,4.99,0.00,29.3,27.2,00.0,38.1,31.1,22.9,0000.0,0015.44,0006.57,0005.73
2022-08-19 04:33:00,,0830.0,5.00,0.00,29.3,27.4,00.0,38.1,31.1,22.9,0000.0,0015.25,0006.54,0005.73
2022-08-19 04:34:00,,0830.0,5.01,0.00,29.3,27.6,00.0,38.1,31.1,23.0,0000.0,0015.41,0006.55,0005.73
2022-08-19 04:35:00,,0830.1,5.00,0.00,29.3,27.7,00.0,38.1,31.2,22.8,0000.0,0015.10,0006.58,0005.74
2022-08-19 04:36:00,,0830.1,5.00,0.00,29.3,27.9,00.0,38.1,31.2,22.9,0000.0,0014.04,0006.62,0005.74
2022-08-19 04:37:00,,0830.1,5.00,0.00,29.3,28.0,00.0,38.1,31.3,22.9,0000.0,0014.17,0006.62,0005.77
2022-08-19 04:38:00,,0830.1,5.00,0.00,29.4,28.1,00.0,38.1,31.3,22.9,0000.0,0014.16,0006.65,0005.78
2022-08-19 04:39:00,,0830.1,5.00,0.00,29.4,28.2,00.0,38.1,31.3,22.9,0000.0,0014.75,0006.71,0005.79
2022-08-19 04:40:00,,0830.1,4.99,0.00,29.4,28.3,00.0,38.1,31.4,22.8,0000.0,0015.76,0006.78,0005.80
2022-08-19 04:41:00,,0830.1,5.00,0.00,29.5,28.4,00.0,38.2,31.4,22.9,0000.0,0016.73,0006.78,0005.80
2022-08-19 04:42:00,,0830.1,5.01,0.00,29.5,28.5,00.0,38.2,31.5,22.7,0000.0,0016.23,0006.76,0005.80
2022-08-19 04:43:00,,0830.1,5.00,0.00,29.5,28.6,00.0,38.2,31.5,22.6,0000.0,0015.74,0006.76,0005.80
2022-08-19 04:44:00,,0830.1,5.00,0.00,29.6,28.6,00.0,38.2,31.5,22.7,0000.0,0015.86,0006.79,0005.80
2022-08-19 04:45:00,,0830.1,5.00,0.00,29.6,28.7,00.0,38.3,31.6,22.6,0000.0,0015.09,0006.80,0005.80
2022-08-19 04:46:00,,0830.1,5.01,0.00,29.6,28.4,00.0,38.2,31.5,22.7,0000.0,0015.15,0006.76,0005.80
2022-08-19 04:47:00,,0830.1,5.00,0.00,29.6,27.7,00.0,38.2,31.3,22.7,0000.0,0015.71,0006.75,0005.80
2022-08-19 04:48:00,,0830.1,5.00,0.00,29.5,27.5,00.0,38.2,31.2,22.8,0000.0,0015.78,0006.77,0005.80
2022-08-19 04:49:00,,0830.0,5.01,0.00,29.4,27.4,00.0,38.2,31.2,22.9,0000.0,0015.25,0006.76,0005.81
2022-08-19 04:50:00,,0830.0,5.00,0.00,29.4,27.5,00.0,38.2,31.2,22.9,0000.0,0014.79,0006.70,0005.81
2022-08-19 04:51:00,,0830.0,5.01,0.00,29.4,27.6,00.0,38.2,31.2,22.9,0000.0,0014.02,0006.65,0005.79
2022-08-19 04:52:00,,0830.0,4.99,0.00,29.4,27.8,00.0,38.2,31.2,22.9,0000.0,0013.04,0006.60,0005.78
2022-08-19 04:53:00,,0830.0,5.01,0.00,29.4,27.9,00.0,38.2,31.3,22.8,0000.0,0012.70,0006.59,0005.77
2022-08-19 04:54:00,,0830.0,5.00,0.00,29.4,28.0,00.0,38.2,31.3,22.7,0000.0,0013.21,0006.58,0005.77
2022-08-19 04:55:00,,0830.0,5.00,0.00,29.4,28.2,00.0,38.2,31.4,22.8,0000.0,0013.68,0006.62,0005.79
2022-08-19 04:56:00,,0830.0,4.99,0.00,29.5,28.3,00.0,38.2,31.4,22.8,0000.0,0014.41,0006.61,0005.80
2022-08-19 04:57:00,,0830.0,5.00,0.00,29.5,28.4,00.0,38.2,31.4,22.8,0000.0,0014.66,0006.66,0005.81
2022-08-19 04:58:00,,0830.0,5.00,0.00,29.5,28.5,00.0,38.2,31.5,22.8,0000.0,0014.19,0006.64,0005.80
2022-08-19 04:59:00,,0830.0,5.00,0.00,29.6,28.5,00.0,38.3,31.5,22.7,0000.0,0015.21,0006.60,0005.80
